Arlington, WA
on Sunday, January 13, 2013

Sunday
Previous Day Next Day
Daily Summary
 ActualAverageRecord
Temperature
Mean Temperature °F °F  
Max Temperature 33°F 43°F 53°F (2011)
Min Temperature 17°F 32°F 14°F (2007)
Degree Days
Heating Degree Days 40    
Moisture
Dew Point 22°F   
Average Humidity 86    
Maximum Humidity 93    
Minimum Humidity 60    
Precipitation
Precipitation 0.00 in in in ()
Wind
Wind Speed 0 mph   
Max Wind Speed 0 mph   
Max Gust Speed mph   
Visibility 9 miles   
Events     
Averages and records for this station are not official NWS values.
Key: T is trace of precipitation, MM is missing value
Source: NWS Daily Summary
Seasonal Weather Averages
Time(PST)TemperatureDew PointHumidity Pressure Visibility Wind DirectionWind SpeedGust SpeedPrecipitationEvents Conditions
12:15 AM 19.4°F 17.6°F 93% 30.47 in 1.0 miles Calm Calm - N/A   Clear
12:35 AM 21.2°F 19.4°F 93% 30.47 in 1.8 miles Calm Calm - N/A   Clear
12:55 AM 19.4°F 17.6°F 93% 30.47 in 1.5 miles Calm Calm - N/A   Clear
1:15 AM 19.4°F 17.6°F 93% 30.47 in 10.0 miles Calm Calm - N/A   Clear
1:35 AM 19.4°F 17.6°F 93% 30.47 in 4.0 miles Calm Calm - N/A   Clear
1:55 AM 19.4°F 17.6°F 93% 30.47 in 0.5 miles Calm Calm - N/A   Mostly Cloudy
2:15 AM 19.4°F 17.6°F 93% 30.48 in 10.0 miles Calm Calm - N/A   Partly Cloudy
2:35 AM 17.6°F 15.8°F 93% 30.48 in 4.0 miles Calm Calm - N/A   Scattered Clouds
2:55 AM 19.4°F 17.6°F 93% 30.48 in 2.5 miles Calm Calm - N/A   Overcast
3:15 AM 19.4°F 17.6°F 93% 30.48 in 2.0 miles Calm Calm - N/A   Scattered Clouds
3:35 AM 19.4°F 17.6°F 93% 30.48 in 7.0 miles Calm Calm - N/A   Clear
3:55 AM 19.4°F 15.8°F 86% 30.47 in 10.0 miles Calm Calm - N/A   Clear
4:15 AM 19.4°F 15.8°F 86% 30.47 in 10.0 miles Calm Calm - N/A   Clear
4:35 AM 19.4°F 17.6°F 93% 30.47 in 10.0 miles Calm Calm - N/A   Clear
4:55 AM 19.4°F 17.6°F 93% 30.47 in 10.0 miles Calm Calm - N/A   Clear
5:15 AM 19.4°F 17.6°F 93% 30.47 in 10.0 miles Calm Calm - N/A   Clear
5:35 AM 19.4°F 17.6°F 93% 30.47 in 10.0 miles Calm Calm - N/A   Clear
5:55 AM 19.4°F 17.6°F 93% 30.47 in 10.0 miles Calm Calm - N/A   Clear
6:15 AM 19.4°F 15.8°F 86% 30.47 in 10.0 miles Calm Calm - N/A   Clear
6:35 AM 19.4°F 15.8°F 86% 30.48 in 10.0 miles Calm Calm - N/A   Clear
6:55 AM 17.6°F 15.8°F 93% 30.49 in 10.0 miles Calm Calm - N/A   Clear
7:15 AM 17.6°F 15.8°F 93% 30.49 in 10.0 miles Calm Calm - N/A   Clear
7:35 AM 17.6°F 15.8°F 93% 30.50 in 10.0 miles Calm Calm - N/A   Clear
7:55 AM 17.6°F 15.8°F 93% 30.49 in 10.0 miles Calm Calm - N/A   Clear
8:15 AM 17.6°F 15.8°F 93% 30.50 in 10.0 miles Calm Calm - N/A   Clear
8:35 AM 19.4°F 17.6°F 93% 30.50 in 10.0 miles Calm Calm - N/A   Clear
8:55 AM 21.2°F 19.4°F 93% 30.50 in 10.0 miles Calm Calm - N/A   Clear
9:15 AM 23.0°F 19.4°F 86% 30.50 in 10.0 miles Calm Calm - N/A   Clear
9:35 AM 24.8°F 21.2°F 86% 30.51 in 10.0 miles Calm Calm - N/A   Clear
9:55 AM 24.8°F 21.2°F 86% 30.51 in 10.0 miles Calm Calm - N/A   Clear
10:15 AM 26.6°F 23.0°F 86% 30.51 in 10.0 miles Calm Calm - N/A   Clear
10:35 AM 26.6°F 23.0°F 86% 30.51 in 10.0 miles Calm Calm - N/A   Clear
10:55 AM 28.4°F 24.8°F 86% 30.50 in 10.0 miles Calm Calm - N/A   Clear
11:15 AM 28.4°F 24.8°F 86% 30.49 in 10.0 miles Calm Calm - N/A   Clear
11:35 AM 30.2°F 24.8°F 80% 30.49 in 10.0 miles Calm Calm - N/A   Clear
11:55 AM 32.0°F 24.8°F 75% 30.49 in 10.0 miles Calm Calm - N/A   Clear
12:15 PM 32.0°F 24.8°F 75% 30.49 in 10.0 miles Calm Calm - N/A   Clear
12:35 PM 30.2°F 24.8°F 80% 30.48 in 10.0 miles Calm Calm - N/A   Clear
12:55 PM 32.0°F 24.8°F 75% 30.47 in 10.0 miles Calm Calm - N/A   Clear
1:15 PM 32.0°F 24.8°F 75% 30.47 in 10.0 miles Calm Calm - N/A   Clear
1:35 PM 33.8°F 24.8°F 70% 30.48 in 10.0 miles Calm Calm - N/A   Clear
2:15 PM 33.8°F 23.0°F 65% 30.48 in 10.0 miles Calm Calm - N/A   Clear
2:35 PM 33.8°F 24.8°F 70% 30.48 in 10.0 miles Calm Calm - N/A   Clear
2:55 PM 33.8°F 24.8°F 70% 30.48 in 10.0 miles Calm Calm - N/A   Clear
3:15 PM 33.8°F 24.8°F 70% 30.47 in 10.0 miles Calm Calm - N/A   Clear
3:35 PM 33.8°F 24.8°F 70% 30.48 in 10.0 miles Calm Calm - N/A   Clear
3:55 PM 33.8°F 23.0°F 65% 30.48 in 10.0 miles Calm Calm - N/A   Clear
4:15 PM 33.8°F 21.2°F 60% 30.48 in 10.0 miles Calm Calm - N/A   Clear
4:35 PM 33.8°F 23.0°F 65% 30.48 in 10.0 miles Calm Calm - N/A   Clear
4:55 PM 32.0°F 23.0°F 69% 30.48 in 10.0 miles Calm Calm - N/A   Clear
5:15 PM 28.4°F 23.0°F 80% 30.49 in 10.0 miles Calm Calm - N/A   Clear
5:35 PM 28.4°F 24.8°F 86% 30.49 in 10.0 miles Calm Calm - N/A   Scattered Clouds
5:55 PM 28.4°F 23.0°F 80% 30.49 in 10.0 miles Calm Calm - N/A   Overcast
6:15 PM 28.4°F 24.8°F 86% 30.48 in 10.0 miles Calm Calm - N/A   Overcast
6:35 PM 28.4°F 26.6°F 93% 30.48 in 10.0 miles Calm Calm - N/A   Overcast
6:55 PM 28.4°F 26.6°F 93% 30.48 in 10.0 miles Calm Calm - N/A   Overcast
7:15 PM 28.4°F 26.6°F 93% 30.49 in 10.0 miles Calm Calm - N/A   Overcast
7:35 PM 28.4°F 24.8°F 86% 30.49 in 10.0 miles Calm Calm - N/A   Overcast
7:55 PM 28.4°F 26.6°F 93% 30.49 in 10.0 miles Calm Calm - N/A   Overcast
8:15 PM 28.4°F 26.6°F 93% 30.51 in 10.0 miles Calm Calm - N/A   Overcast
8:35 PM 28.4°F 26.6°F 93% 30.50 in 10.0 miles Calm Calm - N/A   Overcast
8:55 PM 30.2°F 26.6°F 86% 30.49 in 10.0 miles Calm Calm - N/A   Overcast
9:35 PM 28.4°F 26.6°F 93% 30.51 in 10.0 miles Calm Calm - N/A   Overcast
9:55 PM 30.2°F 26.6°F 86% 30.50 in 10.0 miles Calm Calm - N/A   Overcast
10:15 PM 28.4°F 26.6°F 93% 30.52 in 10.0 miles Calm Calm - N/A   Overcast
10:35 PM 30.2°F 26.6°F 86% 30.51 in 10.0 miles Calm Calm - N/A   Overcast
10:55 PM 30.2°F 26.6°F 86% 30.51 in 10.0 miles Calm Calm - N/A   Overcast
11:15 PM 30.2°F 26.6°F 86% 30.51 in 10.0 miles Calm Calm - N/A   Overcast
11:35 PM 30.2°F 26.6°F 86% 30.50 in 10.0 miles Calm Calm - N/A   Overcast
11:55 PM 28.4°F 26.6°F 93% 30.50 in 10.0 miles Calm Calm - N/A   Overcast
Moon Phase
Jan. 13 Jan. 18 Jan. 26 Feb. 03 Feb. 10
Sunrise:07:55 AM (PST) Moon Rise:08:43 AM (PST)1/13
Sunset:04:40 PM (PST) Moon Set:07:40 PM (PST)1/13

Copyright © 2014 The Weather Underground, Inc.